This demonstration page uses our WeatherBlox Daily Observations layout. Learn more.

Left ArrowRight Arrow

Hourly Observations for August 23, 2021

Temp ( °F °C ) Dew Point ( °F °C ) Humidity (%) Winds ( mph kmh ) Pressure ( in mb ) Visibility ( mi km ) Precip ( " mm )
12:51 am 00:51 Clear with Nearby Thunderstorms 68 20 63 17 83 83 S 5 7 29.81 1009 4 6 0.00 0.00
12:56 am 00:56 Clear with Nearby Thunderstorms 68 20 63 17.2 84 84 S 8 13 29.84 1011 3 5 0.00 0.00
1:53 am 01:53 Clear with Nearby Thunderstorms 73 23 63 17 69 69 SSW 21 33 29.77 1008 6 10 0.00 0.00
1:56 am 01:56 Clear with Nearby Thunderstorms 73 22.8 61 16.1 66 66 SSW 18 30 29.81 1009 7 11 0.00 0.00
2:56 am 02:56 Clear with Nearby Thunderstorms 78 25.6 61 16.1 56 56 SSW 20 31 29.77 1008 10 16 0.00 0.00
3:05 am 03:05 Clear 79 26 61 16 54 54 SSW 18 30 29.72 1007 10 16 0.00 0.00
3:56 am 03:56 Clear 75 23.9 64 17.8 69 69 S 16 26 29.78 1009 10 16 0.00 0.00
4:56 am 04:56 Clear 74 23.3 65 18.3 74 74 S 16 26 29.79 1009 10 16 0.00 0.00
5:56 am 05:56 Clear 71 21.7 63 17.2 76 76 S 7 11 29.79 1009 10 16 0.00 0.00
6:56 am 06:56 Sunny 70 21.1 65 18.3 84 84 SSW 5 7 29.81 1010 10 16 0.00 0.00
7:56 am 07:56 Sunny 71 21.7 65 18.3 81 81 Calm 29.83 1010 10 16 0.00 0.00
8:56 am 08:56 Sunny 75 23.9 66 18.9 74 74 Calm 29.84 1010 10 16 0.00 0.00
9:56 am 09:56 Sunny 78 25.6 70 21.1 76 76 S 13 20 29.83 1010 10 16 0.00 0.00
10:56 am 10:56 Sunny 83 28.3 71 21.7 67 67 SE 10 17 29.84 1011 10 16 0.00 0.00
11:56 am 11:56 Sunny 83 28.3 69 20.6 63 63 VRB 5 7 29.81 1010 10 16 0.00 0.00
12:56 pm 12:56 Sunny 83 28.3 71 21.7 67 67 NE 7 11 29.81 1010 10 16 0.00 0.00
1:56 pm 13:56 Sunny 85 29.4 71 21.7 63 63 ESE 6 9 29.80 1009 10 16 0.00 0.00
2:56 pm 14:56 Sunny 87 30.6 71 21.7 59 59 ESE 9 15 29.78 1009 10 16 0.00 0.00
3:56 pm 15:56 Sunny 89 31.7 74 23.3 61 61 SE 12 19 29.77 1008 10 16 0.00 0.00
4:56 pm 16:56 Sunny 88 31.1 76 24.4 68 68 E 10 17 29.75 1008 10 16 0.00 0.00
5:56 pm 17:56 Sunny 90 32.2 76 24.4 63 63 ESE 9 15 29.74 1007 10 16 0.00 0.00
6:56 pm 18:56 Sunny 87 30.6 78 25.6 75 75 ENE 8 13 29.73 1007 10 16 0.00 0.00
7:56 pm 19:56 Sunny 84 28.9 77 25 80 80 E 8 13 29.72 1007 10 16 0.00 0.00
8:56 pm 20:56 Clear 80 26.7 75 23.9 85 85 ESE 8 13 29.74 1007 10 16 0.00 0.00
9:56 pm 21:56 Clear 80 26.7 70 21.1 71 71 SE 13 20 29.75 1007 10 16 0.00 0.00
10:56 pm 22:56 Clear 79 26.1 69 20.6 72 72 SE 14 22 29.74 1007 10 16 0.00 0.00
11:56 pm 23:56 Clear 77 25 67 19.4 71 71 SSE 13 20 29.75 1007 10 16 0.00 0.00

Powered by AerisWeather